KT4ATL Weather Reports


time (UTC)temp
C
wind
direction
speed
KPH
gust
KPH
rain 1hr
cm
rain 24hr
cm
rain mn
cm
humidity
%
barometer
mb
20260510234519 26 0.0 0.0 0.00 0.00 0.00 49 1014.2
20260510233518 26 0.0 0.0 0.00 0.00 0.00 48 1014.1
20260510232521 27 0.0 0.0 0.00 0.00 0.00 44 1014.0
20260510231518 28 0.0 0.0 0.00 0.00 0.00 43 1014.0
20260510230518 30 26 0.0 1.6 0.00 0.00 0.00 42 1013.9
20260510225518 29 318 0.0 3.2 0.00 0.00 0.00 41 1013.9
20260510224519 29 33 0.0 4.8 0.00 0.00 0.00 43 1013.9
20260510223519 29 60 1.6 3.2 0.00 0.00 0.00 40 1013.9
20260510222519 29 303 1.6 4.8 0.00 0.00 0.00 42 1013.8
20260510221540 30 58 1.6 6.4 0.00 0.00 0.00 41 1013.8
20260510220517 29 48 1.6 4.8 0.00 0.00 0.00 43 1013.8
20260510215516 29 53 1.6 6.4 0.00 0.00 0.00 42 1013.8
20260510214520 28 36 1.6 4.8 0.00 0.00 0.00 42 1013.8
20260510213517 29 38 1.6 6.4 0.00 0.00 0.00 43 1013.8
20260510212519 29 287 3.2 8.0 0.00 0.00 0.00 43 1013.9
20260510211521 29 9 1.6 6.4 0.00 0.00 0.00 44 1014.0
20260510210541 28 19 3.2 6.4 0.00 0.00 0.00 44 1014.1
20260510205518 28 356 3.2 8.0 0.00 0.00 0.00 43 1014.0
20260510204518 28 278 1.6 4.8 0.00 0.00 0.00 43 1014.1
20260510203518 28 32 3.2 8.0 0.00 0.00 0.00 43 1014.2
20260510202518 29 35 3.2 6.4 0.00 0.00 0.00 44 1014.2
20260510201619 30 357 3.2 6.4 0.00 0.00 0.00 43 1014.2
20260510200518 30 39 3.2 9.7 0.00 0.00 0.00 42 1014.3
20260510195518 30 344 1.6 4.8 0.00 0.00 0.00 40 1014.3
20260510194519 31 26 1.6 6.4 0.00 0.00 0.00 38 1014.3
20260510193539 30 30 1.6 6.4 0.00 0.00 0.00 39 1014.4
20260510192519 29 354 1.6 8.0 0.00 0.00 0.00 42 1014.4
20260510191520 28 29 1.6 4.8 0.00 0.00 0.00 43 1014.4
20260510190520 29 305 3.2 6.4 0.00 0.00 0.00 41 1014.4
20260510185518 29 0 1.6 6.4 0.00 0.00 0.00 42 1014.5
20260510184520 28 33 1.6 4.8 0.00 0.00 0.00 40 1014.6
20260510183540 29 359 3.2 6.4 0.00 0.00 0.00 42 1014.7
20260510182517 29 28 1.6 8.0 0.00 0.00 0.00 40 1014.7
20260510181517 29 44 1.6 4.8 0.00 0.00 0.00 42 1014.9
20260510180518 28 28 1.6 4.8 0.00 0.00 0.00 43 1015.0
20260510175516 28 13 1.6 4.8 0.00 0.00 0.00 43 1015.2
20260510174518 28 18 1.6 6.4 0.00 0.00 0.00 43 1015.2
20260510173538 28 27 3.2 6.4 0.00 0.00 0.00 45 1015.3
20260510172518 28 61 3.2 9.7 0.00 0.00 0.00 43 1015.3
20260510171539 28 31 3.2 4.8 0.00 0.00 0.00 40 1015.3
20260510170519 28 55 1.6 4.8 0.00 0.00 0.00 40 1015.4
20260510165519 28 53 1.6 6.4 0.00 0.00 0.00 46 1015.5
20260510164517 28 41 1.6 4.8 0.00 0.00 0.00 40 1015.5
20260510163518 27 35 1.6 4.8 0.00 0.00 0.00 40 1015.5
20260510162520 27 56 1.6 4.8 0.00 0.00 0.00 47 1015.6
20260510161600 27 52 1.6 3.2 0.00 0.00 0.00 51 1015.6
20260510160558 27 30 1.6 6.4 0.00 0.00 0.00 52 1015.6
20260510155518 26 39 1.6 4.8 0.00 0.00 0.00 57 1015.6
20260510154517 26 52 1.6 8.0 0.00 0.00 0.00 53 1015.7
20260510153519 26 46 1.6 6.4 0.00 0.00 0.00 60 1015.9
20260510152519 26 71 1.6 3.2 0.00 0.00 0.00 61 1015.9
20260510151537 26 79 1.6 6.4 0.00 0.00 0.00 63 1016.0
20260510150517 25 75 1.6 3.2 0.00 0.00 0.00 67 1016.1
20260510145518 25 126 1.6 4.8 0.00 0.00 0.00 66 1016.1
20260510144538 24 61 1.6 4.8 0.00 0.00 0.00 70 1016.2
20260510143538 23 152 1.6 4.8 0.00 0.00 0.00 71 1016.4
20260510142518 23 93 1.6 6.4 0.00 0.00 0.00 73 1016.4
20260510141520 23 112 1.6 4.8 0.00 0.00 0.00 76 1016.3
20260510140518 22 107 0.0 8.0 0.00 0.00 0.00 77 1016.4
20260510135517 22 111 1.6 3.2 0.00 0.00 0.00 75 1016.4
20260510134520 21 115 0.0 3.2 0.00 0.00 0.00 78 1016.5
20260510133520 21 122 0.0 3.2 0.00 0.00 0.00 78 1016.5
20260510132519 20 103 0.0 3.2 0.00 0.00 0.00 81 1016.5
20260510131519 19 0.0 0.0 0.00 0.00 0.00 90 1016.4
20260510130516 18 194 0.0 1.6 0.00 0.00 0.00 98 1016.4
20260510125519 18 0.0 0.0 0.00 0.00 0.00 99 1016.3
20260510124540 17 0.0 0.0 0.00 0.00 0.00 99 1016.2
20260510123518 16 0.0 0.0 0.00 0.00 0.00 99 1016.2
20260510122517 14 0.0 0.0 0.00 0.00 0.00 99 1016.0
20260510121522 13 0.0 0.0 0.00 0.00 0.00 98 1016.0
20260510120542 12 0.0 0.0 0.00 0.00 0.00 98 1015.9
20260510115542 11 0.0 0.0 0.00 0.00 0.00 98 1015.7
20260510114523 10 0.0 0.0 0.00 0.00 0.00 98 1015.6
20260510113523 10 0.0 0.0 0.00 0.00 0.00 98 1015.4
20260510112523 9 0.0 0.0 0.00 0.00 0.00 98 1015.2
20260510111523 9 0.0 0.0 0.00 0.00 0.00 98 1015.2
20260510110523 8 0.0 0.0 0.00 0.00 0.00 98 1015.1
20260510105523 8 0.0 0.0 0.00 0.00 0.00 97 1014.9
20260510104523 8 0.0 0.0 0.00 0.00 0.00 97 1014.8
20260510103544 8 0.0 0.0 0.00 0.00 0.00 97 1014.8
20260510102524 8 0.0 0.0 0.00 0.00 0.00 97 1014.8
20260510101524 9 0.0 0.0 0.00 0.00 0.00 97 1014.7
20260510100524 9 0.0 0.0 0.00 0.00 0.00 97 1014.6
20260510095524 9 0.0 0.0 0.00 0.00 0.00 97 1014.5
20260510094545 9 0.0 0.0 0.00 0.00 0.00 97 1014.3
20260510093526 9 0.0 0.0 0.00 0.00 0.00 97 1014.2
20260510092525 9 0.0 0.0 0.00 0.00 0.00 97 1014.2
20260510091545 9 0.0 0.0 0.00 0.00 0.00 97 1014.1
20260510090528 9 0.0 0.0 0.00 0.00 0.00 97 1014.1
20260510085525 9 0.0 0.0 0.00 0.00 0.00 97 1014.1
20260510084526 9 0.0 0.0 0.00 0.00 0.00 97 1014.0
20260510083526 9 0.0 0.0 0.00 0.00 0.00 97 1014.1
20260510082526 9 0.0 0.0 0.00 0.00 0.00 97 1014.1
20260510081519 10 0.0 0.0 0.00 0.00 0.00 97 1014.0
20260510080519 10 0.0 0.0 0.00 0.00 0.00 96 1013.7
20260510075519 10 0.0 0.0 0.00 0.00 0.00 96 1013.6
20260510074517 10 0.0 0.0 0.00 0.00 0.00 96 1013.5
20260510073540 10 0.0 0.0 0.00 0.00 0.00 96 1013.4
20260510072520 10 0.0 0.0 0.00 0.00 0.00 96 1013.4
20260510071600 10 0.0 0.0 0.00 0.00 0.00 96 1013.4
20260510070538 10 0.0 0.0 0.00 0.00 0.00 96 1013.3
20260510065518 10 0.0 0.0 0.00 0.00 0.00 96 1013.4
20260510064521 10 0.0 0.0 0.00 0.00 0.00 96 1013.3
20260510063518 10 0.0 0.0 0.00 0.00 0.00 96 1013.3
20260510062518 10 0.0 0.0 0.00 0.00 0.00 96 1013.4
20260510061518 10 0.0 0.0 0.00 0.00 0.00 96 1013.4
20260510060518 10 0.0 0.0 0.00 0.00 0.00 96 1013.4
20260510055516 11 0.0 0.0 0.00 0.00 0.00 96 1013.4
20260510054519 11 0.0 0.0 0.00 0.00 0.00 96 1013.3
20260510053519 11 0.0 0.0 0.00 0.00 0.00 96 1013.3
20260510052519 11 0.0 0.0 0.00 0.00 0.00 95 1013.3
20260510051519 11 0.0 0.0 0.00 0.00 0.00 95 1013.3
20260510050520 11 0.0 0.0 0.00 0.00 0.00 95 1013.2
20260510045519 11 0.0 0.0 0.00 0.00 0.00 95 1013.1
20260510044517 11 0.0 0.0 0.00 0.00 0.00 95 1013.1
20260510043520 11 0.0 0.0 0.00 0.00 0.00 94 1013.2
20260510041520 12 0.0 0.0 0.00 0.00 0.00 94 1013.1
20260510040558 12 0.0 0.0 0.00 0.00 0.00 94 1013.0
20260510035518 12 0.0 0.0 0.00 0.00 0.00 93 1013.0
20260510034558 12 0.0 0.0 0.00 0.00 0.00 92 1012.9
20260510033521 12 0.0 0.0 0.00 0.00 0.00 92 1012.9
20260510032518 13 250 0.0 1.6 0.00 0.00 0.00 91 1012.9
20260510031518 13 245 0.0 1.6 0.00 0.00 0.00 91 1012.8
20260510030518 13 0.0 0.0 0.00 0.00 0.00 90 1012.8
20260510025519 13 247 0.0 1.6 0.00 0.00 0.00 89 1012.6
20260510024519 14 0.0 0.0 0.00 0.00 0.00 87 1012.5
20260510023519 14 0.0 0.0 0.00 0.00 0.00 87 1012.4
20260510022519 15 0.0 0.0 0.00 0.00 0.00 86 1012.3
20260510021519 15 0.0 0.0 0.00 0.00 0.00 84 1012.1
20260510020517 15 0.0 0.0 0.00 0.00 0.00 84 1011.9
20260510015517 16 0.0 0.0 0.00 0.00 0.00 82 1011.7
20260510014520 16 0.0 0.0 0.00 0.00 0.00 79 1011.6
20260510013517 16 0.0 0.0 0.00 0.00 0.00 77 1011.5
20260510012517 17 0.0 0.0 0.00 0.00 0.00 75 1011.4
20260510011520 18 0.0 0.0 0.00 0.00 0.00 71 1011.2
20260510010541 18 0.0 0.0 0.00 0.00 0.00 70 1011.0
20260510005518 20 0.0 0.0 0.00 0.00 0.00 68 1010.9
20260510004518 20 0.0 0.0 0.00 0.00 0.00 65 1010.7
20260510003518 21 0.0 0.0 0.00 0.00 0.00 61 1010.6
20260510002518 22 0.0 0.0 0.00 0.00 0.00 58 1010.6
20260510001520 23 0.0 0.0 0.00 0.00 0.00 54 1010.5
20260510000519 24 0.0 0.0 0.00 0.00 0.00 51 1010.5
20260509235519 25 265 0.0 3.2 0.00 0.00 0.00 49 1010.4